Weather History for KDHT - November, 2012

Change the Weather History Date:

Monday, November 12, 2012

  Actual Average Record
Temperature  
Mean Temperature 34 °F 46 °F  
Max Temperature 52 °F 62 °F 85 °F (1973)
Min Temperature 16 °F 30 °F 14 °F (2014)
Degree Days  
Heating Degree Days 31 19  
Month to date heating degree days 150 205  
Since 1 July heating degree days 470 565  
Cooling Degree Days 0 0  
Month to date cooling degree days 0 0  
Year to date cooling degree days 1648 1138  
Moisture  
Dew Point 3 °F    
Average Humidity 43    
Maximum Humidity 77    
Minimum Humidity 9    
Precipitation  
Precipitation 0.00 in 0.02 in 0.37 in (1994)
Month to date precipitation 0.00 0.32  
Year to date precipitation 6.35 16.79  
Snow  
Snow 0.00 in 0.10 in T in (2010)
Month to date snowfall 0.0 0.4  
Since 1 July snowfall 0.0 1.0  
Since 1 September snowfall 0.0 1.0  
Snow Depth 0.00 in    
Sea Level Pressure  
Sea Level Pressure 30.41 in    
Wind  
Wind Speed 7 mph (SW)    
Max Wind Speed 15 mph    
Max Gust Speed 20 mph    
Visibility 10 miles    
Events      
T = Trace of Precipitation, MM = Missing Value Source: NWS Daily Summary

Daily Weather History Graph

Daily Weather History Graph

Search for Another Location

Airport or City:

Trip Planner

Search our weather history database for the weather conditions in past years. The results will help you decide how hot, cold, wet, or windy it might be!

Date:

Astronomy

Nov. 12, 2012 Rise Set
Actual Time 7:24 AM CST 5:44 PM CST
Civil Twilight 6:57 AM CST 6:11 PM CST
Nautical Twilight 6:26 AM CST 6:42 PM CST
Astronomical Twilight 5:55 AM CST 7:12 PM CST
Moon 5:53 AM CST (11/12) 4:50 PM CST (11/12)
Length of Visible Light 11h 14m
Length of Day
10h 19m
Waning Crescent, 2% of the Moon is Illuminated
Nov 12
Waning Crescent
Nov 13
New
Nov 20
First Quarter
Nov 28
Full
Dec 6
Last Quarter

Hourly Weather History & Observations

Time (CST) Temp. Windchill Dew Point Humidity Pressure Visibility Wind Dir Wind Speed Gust Speed Precip Events Conditions
12:53 AM 24.1 °F 18.2 °F 15.1 °F 69% 30.34 in 7.0 mi West 4.6 mph - N/A   Clear
1:53 AM 21.0 °F 16.2 °F 12.0 °F 68% 30.37 in 10.0 mi WNW 3.5 mph - N/A   Clear
2:53 AM 21.0 °F 12.4 °F 12.9 °F 71% 30.37 in 10.0 mi West 6.9 mph - N/A   Clear
3:53 AM 19.9 °F 13.4 °F 12.9 °F 74% 30.38 in 10.0 mi West 4.6 mph - N/A   Clear
4:53 AM 19.0 °F 10.0 °F 14.0 °F 81% 30.39 in 10.0 mi West 6.9 mph - N/A   Clear
5:53 AM 19.9 °F - 14.0 °F 78% 30.41 in 9.0 mi Calm Calm - N/A   Clear
6:53 AM 18.0 °F 8.7 °F 10.0 °F 71% 30.43 in 10.0 mi WNW 6.9 mph - N/A   Clear
7:53 AM 19.9 °F 10.1 °F 9.0 °F 62% 30.45 in 10.0 mi WNW 8.1 mph - N/A   Clear
8:53 AM 27.0 °F 18.0 °F 9.0 °F 47% 30.45 in 10.0 mi WNW 9.2 mph - N/A   Clear
9:53 AM 36.0 °F 31.1 °F 12.9 °F 39% 30.45 in 10.0 mi West 5.8 mph - N/A   Clear
10:53 AM 44.1 °F 41.5 °F 3.9 °F 19% 30.46 in 10.0 mi West 4.6 mph - N/A   Clear
11:53 AM 48.0 °F - -5.1 °F 11% 30.43 in 10.0 mi SW 10.4 mph 18.4 mph N/A   Clear
12:53 PM 48.9 °F - -8.0 °F 9% 30.39 in 10.0 mi SSW 5.8 mph - N/A   Clear
1:53 PM 51.1 °F - -5.1 °F 10% 30.37 in 10.0 mi Variable 3.5 mph - N/A   Clear
2:53 PM 51.1 °F - -7.1 °F 9% 30.37 in 10.0 mi SW 4.6 mph - N/A   Clear
3:53 PM 52.0 °F - -5.1 °F 9% 30.37 in 10.0 mi South 11.5 mph 16.1 mph N/A   Clear
4:53 PM 50.0 °F - -5.1 °F 10% 30.37 in 10.0 mi South 10.4 mph - N/A   Clear
5:53 PM 39.9 °F 33.9 °F -2.9 °F 16% 30.40 in 10.0 mi South 9.2 mph - N/A   Clear
6:53 PM 33.1 °F 27.7 °F -5.1 °F 19% 30.43 in 10.0 mi South 5.8 mph - N/A   Clear
7:53 PM 30.0 °F 24.1 °F 1.0 °F 29% 30.45 in 10.0 mi South 5.8 mph - N/A   Clear
8:53 PM 28.0 °F 21.7 °F -5.1 °F 24% 30.44 in 10.0 mi South 5.8 mph - N/A   Clear
9:53 PM 30.0 °F 24.1 °F -0.9 °F 27% 30.42 in 10.0 mi South 5.8 mph - N/A   Clear
10:53 PM 24.1 °F 14.4 °F -4.0 °F 29% 30.41 in 10.0 mi SSW 9.2 mph - N/A   Clear
11:53 PM 21.9 °F 11.0 °F -0.9 °F 37% 30.41 in 10.0 mi SSW 10.4 mph - N/A   Clear